Tracking 30995 objects as of 5-Jul-2025
HD Live streaming from Space Station
objects crossing your sky now

ARIANE 5 DEB (SYLDA)

Track ARIANE 5 DEB (SYLDA) now!


NORAD ID: 27833
Int'l Code: 2003-028D
Perigee: 590.2 km
Apogee: 35,645.6 km
Inclination: 6.5 °
Period: 635.6 minutes
Semi major axis: 24488 km
RCS: 16.2807 m2 (large)
Launch date: June 11, 2003
Source: France (FR)
Launch site: FRENCH GUIANA (FRGUI)

Note: This is SATELLITE DEBRIS
Your satellite tracking list
Your tracking list is empty




NASA's NSSDC Master Catalog

Two Line Element Set (TLE):
1 27833U 03028D   25186.42350057 -.00000154  00000-0 -24962-3 0  9992
2 27833   6.4588 249.8072 7157401  52.7819 353.0224  2.26541696182242
Source of the keplerian elements: AFSPC